When you browse on this site, cookies collect data to enhance your experience and personalize the content and advertising you see.
Visit our Privacy Policy to learn more. By continuing to use the site, you agree to this use of cookies and data.
  • In Czech Republic
  • List of Countries
  • For 7 days
  • Water Temperature
  • Satellite Maps
  • Weather Map
  • Weather Widgets
  • user-avatar
    Login

    Hourly Weather Montreal

    Today, 16 June, Sunday

    Time Temperature Precipitation Wind Pressure Humidity
    00:00 +13°C° 0 mm 3 mps 754 mmHg 94%
    01:00 +12°C° 0 mm 3 mps 754 mmHg 95%
    02:00 +12°C° 0 mm 3 mps 754 mmHg 95%
    03:00 +11°C° 0 mm 3 mps 754 mmHg 95%
    04:00 +10°C° 0 mm 2 mps 754 mmHg 95%
    05:00 +12°C° 0 mm 2 mps 754 mmHg 91%
    06:00 +13°C° 0 mm 2 mps 755 mmHg 88%
    07:00 +14°C° 0 mm 2 mps 755 mmHg 84%
    08:00 +16°C° 0 mm 2 mps 755 mmHg 76%
    09:00 +17°C° 0 mm 2 mps 755 mmHg 68%
    10:00 +19°C° 0 mm 2 mps 755 mmHg 60%
    11:00 +20°C° 0 mm 2 mps 755 mmHg 57%
    12:00 +20°C° 0 mm 2 mps 754 mmHg 55%
    13:00 +21°C° 0 mm 2 mps 754 mmHg 52%
    14:00 +21°C° 0 mm 2 mps 754 mmHg 54%
    15:00 +21°C° 0 mm 2 mps 754 mmHg 56%
    16:00 +21°C° 0 mm 2 mps 754 mmHg 57%
    17:00 +20°C° 0 mm 2 mps 754 mmHg 62%
    18:00 +19°C° 0 mm 2 mps 755 mmHg 67%
    19:00 +18°C° 0 mm 2 mps 755 mmHg 71%
    20:00 +17°C° 0 mm 2 mps 755 mmHg 74%
    21:00 +16°C° 0 mm 1 mps 755 mmHg 77%
    22:00 +15°C° 0 mm 1 mps 755 mmHg 80%
    23:00 +14°C° 0 mm 1 mps 756 mmHg 80%

    Tomorrow, 17 June, Monday

    Time Temperature Precipitation Wind Pressure Humidity
    00:00 +14°C° 0 mm 1 mps 756 mmHg 80%
    01:00 +13°C° 0 mm 1 mps 756 mmHg 80%
    02:00 +13°C° 0 mm 1 mps 756 mmHg 81%
    03:00 +13°C° 0 mm 1 mps 757 mmHg 81%
    04:00 +12°C° 0 mm 1 mps 757 mmHg 81%
    05:00 +14°C° 0 mm 1 mps 757 mmHg 78%
    06:00 +15°C° 0 mm 1 mps 758 mmHg 76%
    07:00 +16°C° 0 mm 1 mps 758 mmHg 73%
    08:00 +19°C° 0 mm 1 mps 758 mmHg 68%
    09:00 +20°C° 0 mm 1 mps 758 mmHg 63%
    10:00 +22°C° 0 mm 1 mps 758 mmHg 58%
    11:00 +21°C° 0 mm 2 mps 758 mmHg 56%
    12:00 +23°C° 0 mm 2 mps 757 mmHg 54%
    13:00 +24°C° 0 mm 3 mps 757 mmHg 51%
    14:00 +24°C° 0 mm 3 mps 757 mmHg 53%
    15:00 +24°C° 0 mm 3 mps 757 mmHg 54%
    16:00 +23°C° 0 mm 4 mps 757 mmHg 55%
    17:00 +22°C° 0 mm 3 mps 757 mmHg 60%
    18:00 +21°C° 0 mm 3 mps 757 mmHg 66%
    19:00 +20°C° 0 mm 2 mps 757 mmHg 71%
    20:00 +19°C° 0 mm 2 mps 757 mmHg 73%
    21:00 +18°C° 0 mm 2 mps 757 mmHg 76%
    22:00 +17°C° 0 mm 2 mps 757 mmHg 78%
    23:00 +16°C° 0 mm 2 mps 757 mmHg 79%

    Day after tomorrow, 18 June, Tuesday

    Time Temperature Precipitation Wind Pressure Humidity
    00:00 +16°C° 0 mm 1 mps 757 mmHg 80%
    01:00 +15°C° 0 mm 1 mps 757 mmHg 80%
    02:00 +15°C° 0 mm 1 mps 757 mmHg 81%
    03:00 +14°C° 0 mm 1 mps 757 mmHg 81%
    04:00 +14°C° 0 mm 1 mps 757 mmHg 82%
    05:00 +15°C° 0 mm 1 mps 757 mmHg 79%
    06:00 +18°C° 0 mm 1 mps 757 mmHg 77%
    07:00 +19°C° 0 mm 1 mps 757 mmHg 75%
    08:00 +21°C° 0 mm 1 mps 757 mmHg 69%
    09:00 +22°C° 0 mm 1 mps 756 mmHg 64%
    10:00 +22°C° 0 mm 0 mps 756 mmHg 58%
    11:00 +25°C° 0 mm 1 mps 756 mmHg 55%
    12:00 +25°C° 0 mm 1 mps 755 mmHg 51%
    13:00 +26°C° 0 mm 1 mps 755 mmHg 48%
    14:00 +26°C° 0 mm 1 mps 755 mmHg 49%
    15:00 +26°C° 0 mm 2 mps 754 mmHg 50%
    16:00 +26°C° 0 mm 2 mps 754 mmHg 51%
    17:00 +25°C° 0 mm 1 mps 754 mmHg 55%
    18:00 +24°C° 0 mm 1 mps 754 mmHg 60%
    19:00 +23°C° 0 mm 1 mps 754 mmHg 64%
    20:00 +22°C° 0 mm 1 mps 754 mmHg 67%
    21:00 +20°C° 0 mm 1 mps 754 mmHg 71%
    22:00 +19°C° 0 mm 1 mps 754 mmHg 74%
    23:00 +19°C° 0 mm 1 mps 754 mmHg 75%

    19 June, Wednesday

    Time Temperature Precipitation Wind Pressure Humidity
    00:00 +18°C° 0 mm 1 mps 754 mmHg 76%
    01:00 +18°C° 0 mm 1 mps 754 mmHg 77%
    02:00 +16°C° 0 mm 1 mps 754 mmHg 79%
    03:00 +16°C° 0 mm 1 mps 754 mmHg 81%
    04:00 +15°C° 0 mm 1 mps 753 mmHg 83%
    05:00 +16°C° 0 mm 1 mps 754 mmHg 79%
    06:00 +19°C° 0 mm 1 mps 754 mmHg 75%
    07:00 +18°C° 0 mm 0 mps 754 mmHg 72%
    08:00 +22°C° 0 mm 1 mps 754 mmHg 68%
    09:00 +23°C° 0 mm 1 mps 753 mmHg 64%
    10:00 +25°C° 0 mm 1 mps 753 mmHg 60%
    11:00 +26°C° 0 mm 1 mps 753 mmHg 56%
    12:00 +26°C° 0 mm 1 mps 752 mmHg 53%
    13:00 +27°C° 0 mm 2 mps 752 mmHg 50%
    14:00 +27°C° 0 mm 2 mps 751 mmHg 51%
    15:00 +27°C° 0 mm 2 mps 751 mmHg 53%
    16:00 +27°C° 0 mm 2 mps 751 mmHg 54%
    17:00 +26°C° 0 mm 2 mps 751 mmHg 59%
    18:00 +25°C° 0 mm 2 mps 751 mmHg 64%
    19:00 +24°C° 0 mm 1 mps 751 mmHg 69%
    20:00 +23°C° 0 mm 1 mps 751 mmHg 71%
    21:00 +22°C° 0 mm 1 mps 751 mmHg 74%
    22:00 +19°C° 0 mm 0 mps 751 mmHg 76%
    23:00 +20°C° 0.1 mm 1 mps 751 mmHg 78%

    20 June, Thursday

    Time Temperature Precipitation Wind Pressure Humidity
    00:00 +19°C° 0.1 mm 2 mps 751 mmHg 80%
    01:00 +19°C° 0.1 mm 3 mps 751 mmHg 82%
    02:00 +18°C° 0.4 mm 3 mps 751 mmHg 85%
    03:00 +17°C° 0.4 mm 3 mps 751 mmHg 87%
    04:00 +17°C° 0.4 mm 2 mps 751 mmHg 90%
    05:00 +17°C° 0.1 mm 2 mps 752 mmHg 89%
    06:00 +18°C° 0.1 mm 1 mps 752 mmHg 89%
    07:00 +18°C° 0.1 mm 1 mps 752 mmHg 88%
    08:00 +19°C° 0 mm 1 mps 752 mmHg 84%
    09:00 +20°C° 0 mm 1 mps 752 mmHg 79%
    10:00 +21°C° 0 mm 1 mps 752 mmHg 75%
    11:00 +22°C° 0.1 mm 1 mps 752 mmHg 69%
    12:00 +24°C° 0.1 mm 1 mps 752 mmHg 63%
    13:00 +25°C° 0.1 mm 1 mps 752 mmHg 58%
    14:00 +25°C° 0.1 mm 1 mps 751 mmHg 57%
    15:00 +26°C° 0.1 mm 1 mps 751 mmHg 56%
    16:00 +26°C° 0.1 mm 1 mps 751 mmHg 55%
    17:00 +25°C° 0 mm 1 mps 751 mmHg 60%
    18:00 +24°C° 0 mm 1 mps 751 mmHg 64%
    19:00 +22°C° 0 mm 1 mps 751 mmHg 69%
    20:00 +21°C° 0 mm 1 mps 751 mmHg 71%
    21:00 +20°C° 0 mm 1 mps 751 mmHg 72%
    22:00 +19°C° 0 mm 1 mps 751 mmHg 74%
    23:00 +18°C° 0 mm 2 mps 751 mmHg 73%

    21 June, Friday

    Time Temperature Precipitation Wind Pressure Humidity
    00:00 +17°C° 0 mm 3 mps 751 mmHg 73%
    01:00 +17°C° 0 mm 4 mps 751 mmHg 72%
    02:00 +15°C° 0 mm 4 mps 751 mmHg 69%
    03:00 +14°C° 0 mm 4 mps 751 mmHg 67%
    04:00 +14°C° 0 mm 5 mps 750 mmHg 64%
    05:00 +14°C° 0 mm 5 mps 750 mmHg 67%
    06:00 +14°C° 0 mm 5 mps 750 mmHg 69%
    07:00 +14°C° 0 mm 5 mps 750 mmHg 71%
    08:00 +15°C° 0.3 mm 5 mps 750 mmHg 74%
    09:00 +15°C° 0.3 mm 5 mps 750 mmHg 77%
    10:00 +16°C° 0.3 mm 5 mps 750 mmHg 81%
    11:00 +16°C° 1.1 mm 5 mps 750 mmHg 82%
    12:00 +16°C° 1.1 mm 5 mps 750 mmHg 84%
    13:00 +16°C° 1.1 mm 5 mps 750 mmHg 86%
    14:00 +17°C° 1.3 mm 5 mps 750 mmHg 86%
    15:00 +18°C° 1.3 mm 4 mps 750 mmHg 85%
    16:00 +18°C° 1.3 mm 4 mps 750 mmHg 84%
    17:00 +18°C° 0.2 mm 3 mps 751 mmHg 84%
    18:00 +18°C° 0.2 mm 2 mps 751 mmHg 83%
    19:00 +17°C° 0.2 mm 2 mps 752 mmHg 83%
    20:00 +18°C° 0 mm 1 mps 752 mmHg 82%
    21:00 +16°C° 0 mm 1 mps 752 mmHg 82%
    22:00 +16°C° 0 mm 1 mps 753 mmHg 82%
    23:00 +16°C° 0 mm 1 mps 753 mmHg 81%
    Show more